Location: Im Fang
(46.6019°N, 7.2397°E)
Time: 11:06:21
(UTC+00:00)

Cosmos 1624 Rocket - Pass Details

Date: 08 December 2019
Orbit: 757 x 784 km, 74.0° (Epoch: 25 January)

Event Time Altitude Azimuth Distance (km) Brightness Sun altitude
Exits shadow 05:07:31 - 222° (SW) 2,449 6.3 -18.8°
Reaches altitude 10° 05:07:50 10° 223° (SW) 2,329 6.2 -18.7°
Maximum altitude 05:12:58 49° 298° (WNW) 1,010 4.2 -17.9°
Drops below altitude 10° 05:18:09 10° 13° (NNE) 2,352 6.5 -17.0°
Sets 05:20:38 0° 19° (NNE) 3,284 7.3 -16.6°
